Weather in Remda

Russia / Pskov Oblast     58°18′48″N   27°47′25″E
temp.,
°C
wind,
m/s
gust,
m/s
humid.,
%
clouds,
%
prec.,
mm/h
press.,
hPa
HPBL,
m
8 march, mon
mon800:00−7nnw499269 0.1 1000253
03:00−7nnw5119351 0.1 1003553
06:00−8n51186100 0.2 1006598
09:00−10n5108583 0.2 1009478
12:00−8nnw597953 0.0 1012603
15:00−6nnw697374 0.0 1014793
18:00−7nnw487448 0.0 1016505
21:00−10nnw238524 0.0 101761
9 march, tue
tue900:00−11nnw22880 0.0 101827
03:00−11nw12900 0.0 101921
06:00−10sw128881 0.0 101925
09:00−9sse358891 0.1 1018210
12:00−7sse5792100 1.8 1017377
15:00−5se6993100 3.9 1017421
18:00−5ese6995100 3.3 1016355
21:00−8e61194100 8.0 1017483
10 march, wed
wed1000:00−9e61293100 1.4 1018535
03:00−11e51188100 1.7 1020505
06:00−13ene4108799 0.0 1021339
09:00−15e4108571 0.0 1023331
12:00−10e5107026 0.0 1025548
15:00−7ese5116259 0.0 1025789
18:00−9e5107195 0.0 1025462
21:00−12e5127866 0.0 1026303
11 march, thu
thu1100:00−13ese511810 0.0 1027299
03:00−14ese512810 0.0 1026279
06:00−15se512780 0.0 1024302
09:00−14se6128111 0.0 1023409
12:00−10se7128780 0.0 1021484
15:00−7se7128790 0.0 1018537
18:00−4sse71487100 0.1 1015732
21:00−2sse91688100 0.1 1012934
12 march, fri
fri1200:00−3sse101878100 0.0 1009929
03:00−3sse101875100 0.0 10041055
06:00−3sse111993100 1.1 10001187
09:00−1s101793100 4.1 9971002
12:000s81397100 1.4 996648
15:00+1ssw41099100 2.8 996367
18:00+2ssw41097100 0.3 996381
21:00+1sw4998100 1.1 996335